Time,TemperatureF,DewpointF,PressureIn,WindDirection,WindDirectionDegrees,WindSpeedMPH,WindSpeedGustMPH,Humidity,HourlyPrecipIn,Conditions,Clouds,dailyrainin,SoftwareType,DateUTC
2013-09-13 00:06:00,71.6,71.0,29.81,South,180,0.0,-999.0,98,-99.99,,,0.00,Acu-Link.com,2013-09-13 02:06:00,
2013-09-13 00:21:00,71.2,70.6,29.81,NNW,337,0.0,-999.0,98,-99.99,,,0.00,Acu-Link.com,2013-09-13 02:21:00,
2013-09-13 00:36:00,70.9,70.3,29.81,SW,225,0.0,-999.0,98,-99.99,,,0.00,Acu-Link.com,2013-09-13 02:36:00,
2013-09-13 00:51:00,70.7,70.1,29.82,NNW,337,0.0,-999.0,98,-99.99,,,0.00,Acu-Link.com,2013-09-13 02:51:00,
2013-09-13 01:06:00,70.5,69.9,29.81,NW,315,0.0,-999.0,98,-99.99,,,0.00,Acu-Link.com,2013-09-13 03:06:00,
2013-09-13 01:21:00,70.5,69.9,29.81,North,0,0.0,-999.0,98,-99.99,,,0.00,Acu-Link.com,2013-09-13 03:21:00,
2013-09-13 01:37:00,70.3,69.7,29.81,North,0,0.0,-999.0,98,-99.99,,,0.00,Acu-Link.com,2013-09-13 03:37:00,
2013-09-13 01:52:00,70.3,69.7,29.79,NNW,337,0.0,-999.0,98,-99.99,,,0.00,Acu-Link.com,2013-09-13 03:52:00,
2013-09-13 02:07:00,70.3,69.7,29.79,NW,315,0.0,-999.0,98,-99.99,,,0.00,Acu-Link.com,2013-09-13 04:07:00,
2013-09-13 02:22:00,70.2,69.6,29.79,South,180,0.0,-999.0,98,-99.99,,,0.00,Acu-Link.com,2013-09-13 04:22:00,
2013-09-13 02:37:00,70.0,69.4,29.78,South,180,0.0,-999.0,98,-99.99,,,0.00,Acu-Link.com,2013-09-13 04:37:00,
2013-09-13 02:53:00,69.6,69.0,29.77,SSW,202,0.0,-999.0,98,-99.99,,,0.00,Acu-Link.com,2013-09-13 04:53:00,
2013-09-13 03:08:00,69.4,68.8,29.76,SSW,202,0.0,-999.0,98,-99.99,,,0.00,Acu-Link.com,2013-09-13 05:08:00,
2013-09-13 03:23:00,69.1,68.5,29.76,ENE,67,0.0,-999.0,98,-99.99,,,0.00,Acu-Link.com,2013-09-13 05:23:00,
2013-09-13 03:38:00,68.7,68.1,29.77,ENE,67,0.0,-999.0,98,-99.99,,,0.00,Acu-Link.com,2013-09-13 05:38:00,
2013-09-13 03:53:00,68.5,68.0,29.77,NE,45,0.0,-999.0,98,-99.99,,,0.00,Acu-Link.com,2013-09-13 05:53:00,
2013-09-13 04:09:00,68.4,67.8,29.76,SSE,157,0.0,-999.0,98,-99.99,,,0.00,Acu-Link.com,2013-09-13 06:09:00,
2013-09-13 04:24:00,68.2,67.6,29.76,ENE,67,0.0,-999.0,98,-99.99,,,0.00,Acu-Link.com,2013-09-13 06:24:00,
2013-09-13 04:39:00,68.0,67.4,29.75,South,180,0.0,-999.0,98,-99.99,,,0.00,Acu-Link.com,2013-09-13 06:39:00,
2013-09-13 04:54:00,68.0,67.4,29.75,SSE,157,0.0,-999.0,98,-99.99,,,0.00,Acu-Link.com,2013-09-13 06:54:00,
2013-09-13 05:10:00,67.8,67.2,29.74,SSW,202,0.0,-999.0,98,-99.99,,,0.00,Acu-Link.com,2013-09-13 07:10:00,
2013-09-13 05:25:00,67.6,67.1,29.74,WSW,247,0.0,-999.0,98,-99.99,,,0.00,Acu-Link.com,2013-09-13 07:25:00,
2013-09-13 05:40:00,67.3,66.7,29.73,ENE,67,0.0,-999.0,98,-99.99,,,0.00,Acu-Link.com,2013-09-13 07:40:00,
2013-09-13 05:55:00,67.3,66.7,29.73,North,0,0.0,-999.0,98,-99.99,,,0.00,Acu-Link.com,2013-09-13 07:55:00,
2013-09-13 06:11:00,67.3,66.7,29.73,SW,225,0.0,-999.0,98,-99.99,,,0.00,Acu-Link.com,2013-09-13 08:11:00,
2013-09-13 06:26:00,67.3,66.7,29.73,SW,225,0.0,-999.0,98,-99.99,,,0.00,Acu-Link.com,2013-09-13 08:26:00,
2013-09-13 06:41:00,67.3,66.7,29.73,West,270,0.0,-999.0,98,-99.99,,,0.00,Acu-Link.com,2013-09-13 08:41:00,
2013-09-13 06:56:00,67.5,66.9,29.72,SSW,202,0.0,-999.0,98,-99.99,,,0.00,Acu-Link.com,2013-09-13 08:56:00,
2013-09-13 07:12:00,67.3,66.7,29.73,SSW,202,0.0,-999.0,98,-99.99,,,0.00,Acu-Link.com,2013-09-13 09:12:00,
2013-09-13 07:27:00,67.3,66.7,29.73,NE,45,0.0,-999.0,98,-99.99,,,0.00,Acu-Link.com,2013-09-13 09:27:00,
2013-09-13 07:42:00,66.7,66.2,29.73,NE,45,0.0,-999.0,98,-99.99,,,0.00,Acu-Link.com,2013-09-13 09:42:00,
2013-09-13 07:57:00,66.6,66.0,29.73,SSE,157,0.0,-999.0,98,-99.99,,,0.00,Acu-Link.com,2013-09-13 09:57:00,
2013-09-13 08:13:00,66.4,65.8,29.73,North,0,0.0,-999.0,98,-99.99,,,0.00,Acu-Link.com,2013-09-13 10:13:00,
2013-09-13 08:28:00,66.2,65.6,29.74,North,0,0.0,-999.0,98,-99.99,,,0.00,Acu-Link.com,2013-09-13 10:28:00,
2013-09-13 08:43:00,66.0,65.4,29.75,North,0,0.0,-999.0,98,-99.99,,,0.00,Acu-Link.com,2013-09-13 10:43:00,
2013-09-13 08:58:00,66.0,65.4,29.75,NE,45,0.0,-999.0,98,-99.99,,,0.00,Acu-Link.com,2013-09-13 10:58:00,
2013-09-13 09:13:00,65.7,65.1,29.76,NE,45,0.0,-999.0,98,-99.99,,,0.00,Acu-Link.com,2013-09-13 11:13:00,
2013-09-13 09:29:00,65.3,64.7,29.75,West,270,0.0,-999.0,98,-99.99,,,0.00,Acu-Link.com,2013-09-13 11:29:00,
2013-09-13 09:44:00,65.5,64.9,29.75,NNW,337,0.0,-999.0,98,-99.99,,,0.00,Acu-Link.com,2013-09-13 11:44:00,
2013-09-13 09:59:00,65.7,65.1,29.76,NNW,337,0.0,-999.0,98,-99.99,,,0.00,Acu-Link.com,2013-09-13 11:59:00,
2013-09-13 10:14:00,66.0,65.4,29.76,SSE,157,0.0,-999.0,98,-99.99,,,0.00,Acu-Link.com,2013-09-13 12:14:00,
2013-09-13 10:29:00,66.6,66.0,29.76,North,0,0.0,-999.0,98,-99.99,,,0.00,Acu-Link.com,2013-09-13 12:29:00,
2013-09-13 10:45:00,67.5,66.9,29.76,West,270,0.0,-999.0,98,-99.99,,,0.00,Acu-Link.com,2013-09-13 12:45:00,
2013-09-13 11:00:00,68.5,68.0,29.75,NW,315,0.0,-999.0,98,-99.99,,,0.00,Acu-Link.com,2013-09-13 13:00:00,
2013-09-13 11:15:00,69.6,69.0,29.75,North,0,0.0,-999.0,98,-99.99,,,0.00,Acu-Link.com,2013-09-13 13:15:00,
2013-09-13 11:30:00,72.5,71.9,29.76,WNW,292,0.0,-999.0,98,-99.99,,,0.00,Acu-Link.com,2013-09-13 13:30:00,
2013-09-13 11:45:00,73.2,72.6,29.76,SSW,202,0.0,-999.0,98,-99.99,,,0.00,Acu-Link.com,2013-09-13 13:45:00,
2013-09-13 12:01:00,73.6,73.0,29.77,North,0,0.0,-999.0,98,-99.99,,,0.00,Acu-Link.com,2013-09-13 14:01:00,
2013-09-13 12:16:00,74.3,73.7,29.77,East,90,0.0,-999.0,98,-99.99,,,0.00,Acu-Link.com,2013-09-13 14:16:00,
2013-09-13 12:31:00,75.0,74.4,29.77,North,0,2.2,-999.0,98,-99.99,,,0.00,Acu-Link.com,2013-09-13 14:31:00,
2013-09-13 12:46:00,75.9,75.3,29.77,SW,225,1.1,-999.0,98,-99.99,,,0.00,Acu-Link.com,2013-09-13 14:46:00,
2013-09-13 13:02:00,76.3,75.7,29.77,South,180,0.0,-999.0,98,-99.99,,,0.00,Acu-Link.com,2013-09-13 15:02:00,
2013-09-13 13:17:00,77.0,76.4,29.77,NNE,22,1.6,-999.0,98,-99.99,,,0.00,Acu-Link.com,2013-09-13 15:17:00,
2013-09-13 13:32:00,79.9,79.3,29.76,WNW,292,0.0,-999.0,98,-99.99,,,0.00,Acu-Link.com,2013-09-13 15:32:00,
2013-09-13 13:47:00,81.7,80.4,29.76,South,180,0.0,-999.0,96,-99.99,,,0.00,Acu-Link.com,2013-09-13 15:47:00,
2013-09-13 14:02:00,82.9,79.4,29.76,NNW,337,0.0,-999.0,89,-99.99,,,0.00,Acu-Link.com,2013-09-13 16:02:00,
2013-09-13 14:18:00,82.9,78.3,29.76,NNE,22,0.0,-999.0,86,-99.99,,,0.00,Acu-Link.com,2013-09-13 16:18:00,
2013-09-13 14:33:00,81.7,74.9,29.75,SSW,202,1.1,-999.0,80,-99.99,,,0.00,Acu-Link.com,2013-09-13 16:33:00,
2013-09-13 14:48:00,81.5,75.8,29.75,West,270,0.0,-999.0,83,-99.99,,,0.00,Acu-Link.com,2013-09-13 16:48:00,
2013-09-13 15:03:00,81.1,75.5,29.75,SW,225,0.0,-999.0,83,-99.99,,,0.00,Acu-Link.com,2013-09-13 17:03:00,
2013-09-13 15:18:00,81.5,75.8,29.75,SSW,202,2.7,-999.0,83,-99.99,,,0.00,Acu-Link.com,2013-09-13 17:18:00,
2013-09-13 15:34:00,81.1,75.1,29.75,SSW,202,0.0,-999.0,82,-99.99,,,0.00,Acu-Link.com,2013-09-13 17:34:00,
2013-09-13 15:49:00,81.3,76.0,29.74,South,180,1.1,-999.0,84,-99.99,,,0.00,Acu-Link.com,2013-09-13 17:49:00,
2013-09-13 16:04:00,80.6,76.0,29.73,WNW,292,2.2,-999.0,86,-99.99,,,0.00,Acu-Link.com,2013-09-13 18:04:00,
2013-09-13 16:19:00,79.9,75.7,29.73,SE,135,1.1,-999.0,87,-99.99,,,0.00,Acu-Link.com,2013-09-13 18:19:00,
2013-09-13 16:35:00,81.3,75.6,29.73,NNW,337,0.0,-999.0,83,-99.99,,,0.00,Acu-Link.com,2013-09-13 18:35:00,
2013-09-13 16:50:00,81.7,75.6,29.72,SSW,202,1.1,-999.0,82,-99.99,,,0.00,Acu-Link.com,2013-09-13 18:50:00,
2013-09-13 17:05:00,81.5,75.5,29.72,ESE,112,0.0,-999.0,82,-99.99,,,0.00,Acu-Link.com,2013-09-13 19:05:00,
2013-09-13 17:20:00,81.3,75.6,29.72,ENE,67,2.2,-999.0,83,-99.99,,,0.00,Acu-Link.com,2013-09-13 19:20:00,
2013-09-13 17:35:00,80.6,74.6,29.71,NE,45,0.0,-999.0,82,-99.99,,,0.00,Acu-Link.com,2013-09-13 19:35:00,
2013-09-13 17:51:00,81.7,74.5,29.71,SSE,157,1.1,-999.0,79,-99.99,,,0.00,Acu-Link.com,2013-09-13 19:51:00,
2013-09-13 18:06:00,81.1,72.0,29.71,ENE,67,3.8,-999.0,74,-99.99,,,0.00,Acu-Link.com,2013-09-13 20:06:00,
2013-09-13 18:21:00,81.5,70.3,29.71,ESE,112,0.0,-999.0,69,-99.99,,,0.00,Acu-Link.com,2013-09-13 20:21:00,
2013-09-13 18:36:00,81.3,71.4,29.71,South,180,0.0,-999.0,72,-99.99,,,0.00,Acu-Link.com,2013-09-13 20:36:00,
2013-09-13 18:51:00,80.6,71.1,29.70,NE,45,1.1,-999.0,73,-99.99,,,0.00,Acu-Link.com,2013-09-13 20:51:00,
2013-09-13 19:06:00,81.0,72.3,29.70,West,270,1.1,-999.0,75,-99.99,,,0.00,Acu-Link.com,2013-09-13 21:06:00,
2013-09-13 19:22:00,79.9,70.8,29.70,South,180,1.1,-999.0,74,-99.99,,,0.00,Acu-Link.com,2013-09-13 21:22:00,
2013-09-13 19:37:00,79.3,68.3,29.70,SSE,157,1.1,-999.0,69,-99.99,,,0.00,Acu-Link.com,2013-09-13 21:37:00,
2013-09-13 19:52:00,79.0,70.0,29.70,West,270,3.8,-999.0,74,-99.99,,,0.00,Acu-Link.com,2013-09-13 21:52:00,
2013-09-13 20:07:00,78.6,69.6,29.70,South,180,2.2,-999.0,74,-99.99,,,0.00,Acu-Link.com,2013-09-13 22:07:00,
2013-09-13 20:22:00,77.4,71.1,29.71,South,180,2.7,-999.0,81,-99.99,,,0.00,Acu-Link.com,2013-09-13 22:22:00,
2013-09-13 20:38:00,77.0,72.1,29.71,NNW,337,0.0,-999.0,85,-99.99,,,0.00,Acu-Link.com,2013-09-13 22:38:00,
2013-09-13 20:53:00,76.1,71.6,29.70,SSE,157,0.0,-999.0,86,-99.99,,,0.00,Acu-Link.com,2013-09-13 22:53:00,
2013-09-13 21:08:00,75.0,73.5,29.71,NNE,22,0.0,-999.0,95,-99.99,,,0.00,Acu-Link.com,2013-09-13 23:08:00,
2013-09-13 21:23:00,73.4,72.8,29.71,NE,45,0.0,-999.0,98,-99.99,,,0.00,Acu-Link.com,2013-09-13 23:23:00,
2013-09-13 21:39:00,72.7,72.1,29.72,SE,135,1.1,-999.0,98,-99.99,,,0.00,Acu-Link.com,2013-09-13 23:39:00,
2013-09-13 21:54:00,71.6,71.0,29.72,North,0,0.0,-999.0,98,-99.99,,,0.00,Acu-Link.com,2013-09-13 23:54:00,
2013-09-13 22:09:00,70.5,69.9,29.72,WNW,292,0.0,-999.0,98,-99.99,,,0.00,Acu-Link.com,2013-09-14 00:09:00,
2013-09-13 22:24:00,69.6,69.0,29.72,SW,225,1.1,-999.0,98,-99.99,,,0.00,Acu-Link.com,2013-09-14 00:24:00,
2013-09-13 22:39:00,68.5,68.0,29.73,South,180,0.0,-999.0,98,-99.99,,,0.00,Acu-Link.com,2013-09-14 00:39:00,
2013-09-13 22:55:00,66.9,66.3,29.74,NE,45,0.0,-999.0,98,-99.99,,,0.00,Acu-Link.com,2013-09-14 00:55:00,
2013-09-13 23:10:00,66.2,65.6,29.74,West,270,0.0,-999.0,98,-99.99,,,0.00,Acu-Link.com,2013-09-14 01:10:00,
2013-09-13 23:25:00,65.7,65.1,29.74,SSW,202,0.0,-999.0,98,-99.99,,,0.00,Acu-Link.com,2013-09-14 01:25:00,
2013-09-13 23:40:00,64.4,63.8,29.75,West,270,0.0,-999.0,98,-99.99,,,0.00,Acu-Link.com,2013-09-14 01:40:00,
2013-09-13 23:56:00,63.9,63.3,29.75,North,0,0.0,-999.0,98,-99.99,,,0.00,Acu-Link.com,2013-09-14 01:56:00,